FW9692 Weather Reports


time (UTC)temp
C
wind
direction
speed
KPH
gust
KPH
rain 1hr
cm
rain 24hr
cm
rain mn
cm
humidity
%
barometer
mb
20260902224609 32 123 32.2 45.1 0.00 0.05 0.00 36 998.5
20260902223054 32 138 33.8 51.5 0.00 0.05 0.00 34 998.6
20260902221554 33 140 20.9 33.8 0.00 0.05 0.00 33 998.7
20260902220057 32 126 29.0 64.4 0.00 0.05 0.00 34 998.7
20260902214556 33 142 57.9 75.6 0.00 0.05 0.00 35 998.2
20260902213051 35 309 8.0 19.3 0.00 0.05 0.00 28 998.5
20260902211547 35 236 12.9 29.0 0.00 0.05 0.00 30 998.6
20260902210051 34 284 24.1 30.6 0.00 0.05 0.00 31 999.0
20260902204549 35 263 22.5 29.0 0.00 0.05 0.00 29 999.2
20260902203112 35 141 22.5 35.4 0.00 0.05 0.00 29 999.2
20260902201604 35 83 11.3 27.4 0.00 0.05 0.00 30 999.4
20260902200125 35 177 14.5 40.2 0.00 0.05 0.00 29 999.7
20260902194548 35 142 12.9 29.0 0.00 0.05 0.00 29 999.8
20260902193046 35 51 4.8 14.5 0.00 0.05 0.00 30 1000.1
20260902191549 35 183 17.7 27.4 0.00 0.05 0.00 29 1000.4
20260902190054 34 64 8.0 19.3 0.00 0.05 0.00 31 1000.7
20260902184545 34 148 16.1 25.7 0.00 0.05 0.00 31 1000.8
20260902183050 34 26 4.8 24.1 0.00 0.05 0.00 32 1001.1
20260902181547 33 18 6.4 19.3 0.00 0.05 0.00 34 1001.4
20260902180044 33 100 11.3 29.0 0.00 0.05 0.00 35 1001.7
20260902174529 33 126 14.5 22.5 0.00 0.05 0.00 35 1002.0
20260902173029 32 186 11.3 24.1 0.00 0.05 0.00 36 1002.2
20260902171527 32 93 9.7 20.9 0.00 0.05 0.00 36 1002.3
20260902170025 32 134 9.7 16.1 0.00 0.05 0.00 38 1002.5
20260902164534 32 135 8.0 19.3 0.00 0.05 0.00 38 1002.5
20260902163032 31 138 3.2 16.1 0.00 0.05 0.00 40 1002.5
20260902161543 31 141 3.2 12.9 0.00 0.05 0.00 41 1002.7
20260902160035 30 189 9.7 17.7 0.00 0.05 0.00 42 1002.6
20260902154523 30 102 6.4 14.5 0.00 0.05 0.00 44 1002.6
20260902153012 28 63 9.7 14.5 0.00 0.05 0.00 46 1002.6
20260902151508 28 69 6.4 9.7 0.00 0.05 0.00 49 1002.6
20260902150007 27 67 8.0 11.3 0.00 0.05 0.00 51 1002.7
20260902144501 26 24 6.4 14.5 0.00 0.05 0.00 55 1002.6
20260902143105 25 45 9.7 14.5 0.00 0.05 0.00 58 1002.6
20260902141601 24 20 4.8 9.7 0.00 0.05 0.00 57 1002.5
20260902134555 24 330 6.4 8.0 0.00 0.05 0.00 56 1002.3
20260902133052 25 346 8.0 12.9 0.00 0.05 0.00 53 1002.1
20260902131551 24 323 8.0 9.7 0.00 0.05 0.00 54 1001.9
20260902130147 24 330 4.8 6.4 0.00 0.05 0.00 56 1001.9
20260902124558 24 9 4.8 9.7 0.00 0.05 0.00 56 1001.9
20260902123047 24 48 4.8 9.7 0.00 0.05 0.00 58 1001.9
20260902121547 23 76 6.4 9.7 0.00 0.05 0.00 59 1001.7
20260902120048 25 344 9.7 14.5 0.00 0.05 0.00 54 1001.6
20260902114543 25 280 11.3 17.7 0.00 0.05 0.00 52 1001.5
20260902113105 23 291 1.6 4.8 0.00 0.05 0.00 58 1001.4
20260902111550 24 83 6.4 12.9 0.00 0.05 0.00 58 1001.5
20260902110039 24 257 9.7 14.5 0.00 0.05 0.00 55 1001.3
20260902104541 25 237 12.9 14.5 0.00 0.05 0.00 54 1001.2
20260902103037 25 213 11.3 14.5 0.00 0.05 0.00 54 1001.1
20260902101540 25 200 9.7 14.5 0.00 0.05 0.00 54 1001.2
20260902100034 25 185 11.3 12.9 0.00 0.05 0.00 55 1001.1
20260902094535 25 167 12.9 16.1 0.00 0.05 0.00 54 1001.1
20260902093033 25 182 12.9 14.5 0.00 0.05 0.00 53 1001.1
20260902091540 26 182 11.3 14.5 0.00 0.05 0.00 52 1001.1
20260902090028 26 182 17.7 25.7 0.00 0.05 0.00 52 1001.2
20260902084527 26 169 22.5 29.0 0.00 0.05 0.05 51 1001.1
20260902083028 26 169 22.5 25.7 0.00 0.05 0.05 51 1001.2
20260902081534 26 171 20.9 22.5 0.00 0.05 0.05 51 1001.2
20260902080022 27 165 22.5 27.4 0.00 0.05 0.05 49 1001.2
20260902074528 26 171 20.9 22.5 0.00 0.05 0.05 50 1001.2
20260902073023 27 173 12.9 16.1 0.00 0.05 0.05 49 1001.2
20260902071529 27 175 12.9 20.9 0.00 0.05 0.05 49 1001.1
20260902070027 27 178 19.3 25.7 0.00 0.05 0.05 49 1001.1
20260902064527 27 178 17.7 24.1 0.00 0.05 0.05 48 1001.3
20260902063022 27 192 16.1 20.9 0.00 0.05 0.05 48 1001.3
20260902061539 27 196 11.3 14.5 0.00 0.05 0.05 47 1001.4
20260902060033 28 202 8.0 17.7 0.00 0.05 0.05 46 1001.4
20260902054532 28 196 14.5 25.7 0.00 0.05 0.05 45 1001.3
20260902053034 28 177 24.1 37.0 0.00 0.05 0.05 45 1001.1
20260902051619 28 171 29.0 35.4 0.00 0.05 0.05 45 1001.0
20260902050019 28 154 29.0 37.0 0.00 0.05 0.05 45 1000.9
20260902044524 28 155 25.7 33.8 0.00 0.05 0.05 45 1000.9
20260902043030 29 160 30.6 38.6 0.00 0.05 0.05 44 1000.9
20260902041524 29 147 27.4 33.8 0.00 0.05 0.05 45 1001.0
20260902040030 29 153 25.7 35.4 0.00 0.05 0.05 45 1000.9
20260902034529 30 167 30.6 41.8 0.00 0.05 0.05 44 1000.9
20260902033034 30 164 24.1 33.8 0.03 0.05 0.05 43 1000.7
20260902031532 30 140 17.7 29.0 0.05 0.05 0.05 42 1000.5
20260902030019 30 161 32.2 35.4 0.05 0.05 0.05 42 1000.2
20260902024516 30 160 22.5 33.8 0.05 0.05 0.05 45 999.9
20260902023020 30 157 29.0 38.6 0.03 0.03 0.03 45 999.6
20260902021517 30 147 30.6 37.0 0.00 0.00 0.00 44 999.8
20260902020016 30 18 27.4 45.1 0.00 0.00 0.00 39 1000.0
20260902014532 30 336 24.1 33.8 0.00 0.00 0.00 44 999.9
20260902013015 31 291 20.9 33.8 0.00 0.00 0.00 43 999.7
20260902011523 31 326 25.7 35.4 0.00 0.00 0.00 41 999.4
20260902010014 33 265 11.3 22.5 0.00 0.00 0.00 33 999.4
20260902004515 33 182 16.1 27.4 0.00 0.00 0.00 32 999.1
20260902003020 33 163 24.1 37.0 0.00 0.00 0.00 32 998.8
20260902001521 33 184 32.2 40.2 0.00 0.00 0.00 32 998.7
20260902000016 34 141 33.8 48.3 0.00 0.00 0.00 31 998.5
20260901234531 35 144 29.0 45.1 0.00 0.00 0.00 30 998.4
20260901233010 35 144 24.1 32.2 0.00 0.00 0.00 27 998.2
20260901231511 35 146 16.1 30.6 0.00 0.00 0.00 28 998.2
20260901230008 35 137 20.9 35.4 0.00 0.00 0.00 28 998.2